Погода в Санаге

Россия / Республика Бурятия     50°43′57″N   102°48′11″E
темп.,
°C
ветер,
м/с
пор.,
м/с
влажн.,
%
обл.,
%
осадки,
мм/ч
давл.,
гПа
погр.,
м
2 марта, вт
вт223:00−21с018592 0.0 101820
02:00−21сз118672 0.0 101720
05:00−21зсз118875 0.0 101520
08:00−21зсз119161 0.0 101520
11:00−11ссз128029 0.0 1011221
14:00−4зсз5136029 0.0 10081490
17:00−3зсз297018 0.0 10061869
20:00−9зюз128144 0.1 100833
3 марта, ср
ср323:00−11з377867 0.1 1010202
02:00−15з128472 0.1 101128
05:00−17зсз128610 0.0 101231
08:00−19зсз128614 0.0 101327
11:00−9зсз286955 0.0 1012630
14:00−5зсз5115761 0.0 10091902
17:00−5зсз396674 0.1 10091725
20:00−12з227883 0.1 101429
4 марта, чт
чт423:00−18с229014 0.0 101821
02:00−22ссз129317 0.0 102120
05:00−24сз119332 0.0 102320
08:00−25сз119222 0.0 102720
11:00−15зсз017915 0.0 1027229
14:00−10ю00718 0.0 1027502
17:00−10юв01690 0.0 1028562
20:00−17ююв118618 0.0 103220
5 марта, пт
пт523:00−20ссв019363 0.0 103420
02:00−22ссз119631 0.0 103420
05:00−23с01960 0.0 103520
08:00−24сз019610 0.0 103520
11:00−14ссв018211 0.0 1032258
14:00−7сз137022 0.0 1028543
17:00−5зюз166623 0.0 1026939
20:00−14юз128339 0.0 102721
6 марта, сб
сб623:00−17зсз01830 0.0 102520
02:00−18зсз127836 0.0 102620
05:00−17сз1282100 0.0 102621
08:00−17сз118399 0.0 103020
11:00−8сз11720 0.0 1030237
14:00−3ююв03660 0.0 1027669
17:00−3ссз12620 0.0 1024716
20:00−11ююз11770 0.0 102621